2000 HE46 

Epoch 2000 May  16.0 TT = JDT 2451680.5                 Nakano

M   0.41493              (2000.0)            P               Q

n   0.00838606     Peri.   82.07029     -0.57744521     -0.77073302

a  23.9937138      Node   313.13346     -0.81519091     +0.56246059

e   0.9021191      Incl.  158.34376     +0.04495339     +0.29934712

P 117.53           H   14.6           G   0.15           U   *

Residuals in seconds of arc 

000429 699  1.6-  0.1-    000503 118  0.6+  0.0     000507 345  0.7+  0.4-  

000429 699  2.1-  0.3-    000503 046  0.3-  0.1+    000507 118  0.2-  0.3-  

000429 699  2.0-  1.1+    000503 046  0.3-  0.1-    000507 118  0.0   0.8-  

000429 699  0.4+  0.0     000503 046  0.1-  0.1-    000508 118  0.2-  0.2+  

000430 557  0.4-  0.3+    000503 046  0.7-  0.4-    000508 695  1.2-  0.3+  

000430 557  0.5-  0.6+    000504 557  0.2+  0.3+    000508 695  1.1-  0.3+  

000430 557  0.2+  0.4+    000504 557  0.0   0.0     000508 695  0.6-  0.1+  

000430 557  0.4-  0.3+    000504 557  0.1-  0.3-    000508 422  0.0   0.1-  

000430 046  0.1-  0.8+    000504 557  0.1+  0.1-    000508 422  0.2+  0.2-  

000430 046  0.5-  0.7-    000504 651  0.1+  0.4+    000508 422  0.5-  0.5-  

000430 046  0.3+  0.6-    000504 651  0.6+  0.1+    000508 344  0.7+  0.8-  

000430 046  1.6+  1.4-    000504 651  0.6+  0.7+    000508 344  0.9+  0.8-  

000501 402  0.5+  0.3+    000504 350  0.0   0.5-    000508 344  1.0+  1.0-  

000501 402  0.8-  0.5+    000504 350  1.2+  0.0     000508 345  0.5+  0.2-  

000501 402  0.6+  0.2-    000504 350  0.7+  0.3-    000508 402  0.5-  0.2+  

000502 118  0.4-  0.2-    000504 611  0.5+  0.5+    000508 402  1.2-  0.5+  

000502 118  0.4+  0.4+    000504 611  0.4-  1.0+    000508 345  0.1+  0.2-  

000502 118  0.2-  0.1+    000504 611  0.2-  0.6+    000508 402  2.1-  0.2+  

000502 704  0.6+  0.2+    000505 557  0.3-  0.7+    000508 402  1.1-  0.2-  

000502 704  0.5+  0.0     000505 557  0.1-  0.2-    000508 345  0.1-  0.1+  

000502 704  0.4+  0.1+    000505 557  0.4-  0.1-    000509 557  0.5-  0.8-  

000502 704  0.4+  0.2-    000505 118  0.5-  0.2-    000509 557  0.4+  0.2-  

000502 704  0.6+  0.1+    000505 118  0.3-  0.1+    000509 557  0.6-  0.3-  

000502 046  0.4+  0.4+    000505 118  0.4-  0.0     000509 695  0.8-  1.6+  

000502 046  1.2+  0.1+    000506 557  0.5+  0.1-    000509 695  0.2-  1.6+  

000502 046  0.5+  0.0     000506 557  0.7+  0.2-    000509 695  2.1-  1.7+  

000502 046  0.0   0.2+    000506 557  0.1-  0.5-    000509 118  1.0+  0.6-  

000502 046  0.1+  0.2-    000506 118  0.1-  0.5-    000509 118  0.8+  0.7-  

000502 046  0.4+  0.4+    000506 118  0.3-  0.3-    000509 118  0.9+  0.9-  

000502 046  1.6+  0.4-    000506 118  1.4-  0.1-    000513 658  0.7-  0.6+  

000503 557  0.4+  0.4-    000506 046  0.2+  0.4+    000513 658  0.3-  0.2+  

000503 557  0.2+  0.3-    000506 046  0.3+  0.2+    000513 658  0.2-  0.2+  

000503 557  0.1+  0.3-    000506 046  0.4+  0.2-    000523 360  0.1+  0.1-  

000503 046  0.5+  0.2+    000506 046  0.5+  0.1+    000523 360  0.3-  0.1-  

000503 046  0.2-  0.4-    000506 046  0.5+  0.4-    000523 360  0.0   0.5-  

000503 046  0.2+  0.6-    000507 345  0.3-  0.2+    000525 402  0.9+  0.2-  

000503 046  0.5-  0.6-    000507 345  0.2-  0.0     000525 402  0.3+  0.4+  

000503 118  0.6+  0.3+    000507 345  1.4+  0.1-    000525 402  0.2-  0.9+  

  

NAKANO

         **** Don't distribute anyone except personal use only ****

                (C) Copyright 2000 OAA/ComputingSection

write mail from CFAD0::NAKANO on 2000-06-03 03:04:12(JST).

 

K00H46E 0.15K003R521413808207029173131334605158343763923485263280902119099      

2000 HE46  14.6  K005G   0.4  82.1 313.1 158.3 0.902  23.994   1    26   114   N

akano    MPC xxxxx K004T K005P  0.62       0000

 



2000 HE46 

Epoch 2000 May  16.0 TT = JDT 2451680.5                 Nakano

M   0.42365              (2000.0)            P               Q

n   0.00855921     Peri.   82.06850     -0.57740026     -0.77077481

a  23.6690187      Node   313.13553     -0.81522481     +0.56240992

e   0.9007845      Incl.  158.34496     +0.04491607     +0.29933471

P 115.15           H   14.6           G   0.15           U   *

  

NAKANO

         **** Don't distribute anyone except personal use only ****

                (C) Copyright 2000 OAA/ComputingSection

write mail from CFAD0::NAKANO on 2000-05-28 03:12:51(JST).

 



 2000 HE46 

Epoch 2000 Apr. 26.0 TT = JDT 2451660.5                 Nakano

M   0.27398              (2000.0)            P               Q

n   0.00932383     Peri.   82.15666     -0.57816534     -0.77026941

a  22.3566424      Node   313.16991     -0.81466795     +0.56324096

e   0.8949792      Incl.  158.34868     +0.04517720     +0.29907300

P 105.71           H   14.6           G   0.15           U   *

 

NAKANO

         **** Don't distribute anyone except personal use only ****

                (C) Copyright 2000 OAA/ComputingSection

write mail from CFAD0::NAKANO on 2000-05-11 02:40:35(JST).



–ß‚è‚Ü‚·B